Probability
19 18 16 18 26 32 34 32 30 29 27 23 20 17 16 16 16 14 13 13 16 17 18 17 17 16 14 12 11 11 9 8 7 7 7 6 6 6 6 7 9 8 7
24 23 19 19 25 31 32 31 31 30 27 24 21 19 17 16 16 15 14 15 17 18 19 20 18 17 15 12 12 12 10 8 7 8 7 6 6 6 7 8 10 10 9
28 27 24 22 24 28 29 30 32 30 27 24 21 19 18 17 16 17 18 19 20 19 19 20 21 20 17 13 12 12 12 10 9 9 9 8 7 6 7 9 11 12 12
29 30 30 26 23 24 25 29 33 32 28 25 21 19 18 18 17 17 19 21 21 18 18 20 23 23 20 17 13 13 14 13 11 11 11 12 10 8 8 9 11 13 13
31 33 33 30 25 22 23 28 34 35 31 26 21 20 19 17 16 16 18 20 19 17 18 22 25 25 23 20 18 17 17 15 13 12 13 15 14 12 9 9 11 12 12
30 32 35 34 29 25 23 26 33 35 31 26 23 22 20 17 15 15 16 18 18 20 23 26 27 26 24 23 23 22 20 18 14 13 14 16 16 14 12 12 12 12 12
27 28 32 35 33 28 24 25 31 33 29 25 23 21 19 17 15 16 16 16 19 23 27 29 28 26 23 22 22 22 20 18 14 13 15 17 16 15 14 15 14 15 16
24 24 26 31 32 29 26 26 29 31 27 24 23 23 21 18 17 18 17 16 19 22 27 29 29 27 24 21 20 19 18 17 15 15 16 18 17 15 16 17 18 17 18
22 22 25 28 29 29 28 28 29 29 25 23 24 26 25 23 21 22 20 19 20 22 25 28 29 29 26 22 20 19 18 18 18 18 17 18 18 17 18 20 20 19 17
22 24 27 30 30 29 28 30 31 29 25 23 25 28 29 27 26 25 23 22 23 25 25 25 27 27 25 22 21 20 20 20 20 20 19 19 20 20 20 21 21 20 18
22 25 28 31 31 30 29 32 33 30 27 26 27 28 29 28 27 27 25 23 23 25 25 23 23 24 23 22 21 21 21 20 20 20 20 21 21 21 20 20 20 19 19
25 26 27 29 31 31 31 33 33 31 31 30 29 29 28 26 25 25 24 23 23 23 21 20 21 22 22 22 22 21 20 19 19 20 20 21 21 20 18 18 18 18 17
32 31 32 34 35 36 37 37 35 31 30 31 30 30 29 28 27 26 25 25 25 22 20 21 22 21 21 21 20 19 19 18 18 17 17 18 18 18 16 16 17 16 15
36 37 42 46 47 48 47 44 39 31 29 31 32 32 32 32 30 28 27 27 27 25 23 24 24 21 18 18 16 16 17 18 16 14 13 13 13 13 12 12 13 14 14
36 40 47 52 56 57 54 49 43 37 34 34 35 35 34 33 31 29 29 30 31 28 26 25 25 20 14 12 12 11 14 16 14 11 10 9 9 8 8 8 9 10 11
37 42 48 54 58 59 56 50 46 43 39 38 39 38 36 34 32 32 32 32 32 30 26 25 24 18 12 7 6 7 9 11 11 9 8 7 6 7 7 7 6 5 6
39 43 47 52 56 54 51 48 46 45 43 43 43 42 42 40 38 36 35 33 31 29 27 25 23 19 11 5 2 2 5 7 7 6 6 6 5 5 7 7 5 3 2
38 40 42 44 46 44 44 43 43 46 48 47 45 45 46 45 42 39 37 35 32 30 28 27 26 20 12 4 0 0 2 5 4 3 3 4 3 4 5 6 5 3 2
36 35 35 36 37 38 40 41 44 48 50 47 45 46 47 46 43 39 39 37 36 34 31 29 26 21 13 5 1 0 2 4 4 2 1 2 2 2 3 4 6 5 4
35 33 31 33 36 38 40 43 46 48 47 44 43 46 47 45 42 41 39 38 38 38 34 29 25 20 15 9 2 1 3 5 5 3 2 1 1 2 3 4 6 6 6
32 31 31 32 35 39 44 48 49 46 43 41 41 44 44 40 37 39 41 40 39 39 36 30 24 19 17 12 4 1 4 6 6 6 6 4 2 1 2 3 5 5 5
29 29 32 34 37 42 49 53 50 45 42 41 41 41 40 36 33 36 38 37 36 37 35 30 22 18 17 13 6 2 2 5 8 10 10 7 3 1 1 1 3 3 2
26 27 30 35 39 44 50 51 47 43 41 41 43 42 40 38 36 34 32 30 29 29 28 24 20 18 18 15 9 3 1 2 6 9 8 5 2 1 0 0 1 1 0
24 24 27 33 38 42 45 45 42 40 40 42 43 42 40 40 39 35 29 25 23 24 23 20 18 19 20 18 13 8 4 3 4 6 5 2 1 0 0 0 0 0 0
25 24 25 30 35 38 40 41 40 39 39 40 39 36 34 35 35 32 27 22 21 22 21 19 17 18 19 17 15 12 9 7 7 7 6 5 3 2 2 1 1 0 1
26 24 25 29 34 36 36 38 39 39 39 39 36 31 29 30 30 28 23 20 19 19 18 17 15 15 15 14 13 12 11 10 9 9 10 9 7 5 4 4 2 1 1
Wind_Speed
11 10 9 10 10 8 7 6 4 4 3 2 2 2 2 1 2 2 3 2 2 1 1 1 1 1 1 1 0 1 1 1 1 1 1 1 2 2 2 2 2 2 3
12 10 9 9 10 9 8 6 5 4 3 2 2 2 2 1 2 2 3 2 2 1 2 2 1 1 1 1 1 0 1 2 1 0 1 1 1 1 2 2 2 3 2
12 12 10 9 9 8 8 6 5 5 3 3 2 2 2 1 2 2 2 2 2 1 1 1 0 0 1 1 1 0 1 1 1 0 0 1 1 1 1 1 1 1 2
11 12 11 10 9 9 8 7 6 4 3 3 2 3 2 2 1 1 2 2 1 1 1 1 0 1 1 1 1 1 1 1 2 1 1 1 0 1 1 1 0 1 1
12 12 12 10 9 9 9 8 6 4 4 3 3 2 2 1 1 1 2 1 1 1 1 1 1 0 0 1 1 1 1 1 2 2 2 1 1 2 1 1 1 1 0
12 12 11 10 9 9 9 9 7 5 4 4 3 2 2 1 1 1 1 1 1 1 1 2 1 1 1 1 1 1 1 1 2 2 2 1 1 1 1 2 1 1 1
11 12 12 11 10 10 9 9 9 6 5 4 4 3 2 2 2 1 1 1 1 1 1 2 1 0 0 0 1 0 1 1 2 2 2 2 2 1 1 1 2 2 1
11 12 12 11 10 10 9 9 9 7 6 5 3 2 2 2 1 1 0 0 1 1 2 2 1 0 1 1 1 1 1 1 2 2 2 2 2 2 1 1 2 2 1
11 11 11 11 10 10 9 9 9 8 7 6 5 4 3 1 1 1 1 1 1 1 2 1 1 0 0 1 0 0 1 1 2 2 2 2 2 2 2 2 1 1 2
10 11 10 10 9 9 9 9 9 7 7 6 5 4 4 3 2 1 2 1 1 2 1 0 1 0 0 1 0 1 1 1 1 1 2 2 2 3 2 2 2 1 2
9 9 10 10 10 9 9 8 8 8 7 6 4 3 4 3 2 2 2 2 1 1 1 1 0 0 1 0 0 1 1 1 2 2 2 2 3 3 3 2 2 2 1
8 9 10 9 9 9 9 8 8 7 6 5 5 4 3 3 2 2 2 2 1 1 1 0 0 1 0 1 1 1 1 1 2 2 2 3 2 3 3 3 3 2 2
7 7 7 8 7 7 7 8 7 7 7 6 5 4 3 3 2 2 2 1 1 1 1 0 0 1 0 0 1 1 1 1 1 2 2 2 2 3 2 3 3 2 2
7 7 6 6 6 6 6 6 6 6 6 6 5 4 3 2 2 2 2 2 2 1 1 1 1 1 1 0 1 1 1 1 2 1 2 2 2 3 3 3 3 3 3
7 7 6 6 5 6 6 5 5 5 5 4 4 4 3 2 2 2 2 2 2 2 2 2 2 2 2 1 1 1 1 1 2 2 2 1 2 2 2 3 3 3 2
7 7 6 6 5 4 4 4 4 4 4 4 3 3 2 2 2 2 2 2 2 2 2 2 2 2 1 2 2 1 1 1 2 2 2 2 1 1 1 3 4 3 3
6 6 6 5 4 4 3 3 3 3 3 3 3 3 3 3 3 3 2 2 2 2 2 2 2 1 0 1 1 1 1 2 2 3 3 3 3 2 2 3 3 4 4
6 5 5 5 4 4 3 2 2 3 3 3 3 3 3 3 3 3 2 2 2 2 2 2 2 2 1 1 1 1 2 2 2 2 2 2 2 3 3 3 2 2 2
6 4 4 4 4 3 3 2 2 2 2 2 2 2 2 2 3 3 3 2 2 3 3 2 2 2 2 2 2 2 2 2 3 2 2 1 1 2 3 2 2 3 2
5 4 3 4 4 3 3 2 2 2 2 2 2 2 2 3 3 3 3 2 2 3 3 3 2 2 2 2 3 3 3 3 2 2 1 0 2 2 2 2 2 3 3
5 4 4 4 3 3 3 2 1 1 1 1 1 2 2 3 3 2 2 3 3 3 3 3 3 3 3 3 4 3 2 2 2 2 1 0 0 1 2 2 2 3 3
4 3 2 3 3 2 2 2 1 1 1 1 2 2 3 4 2 2 2 3 4 4 3 3 3 3 3 3 4 5 4 4 2 2 1 0 3 3 4 3 3 4 3
3 2 2 2 1 2 2 1 1 0 1 1 2 3 3 3 3 3 3 3 3 4 4 3 4 3 2 3 5 6 6 5 3 2 2 2 4 4 3 4 4 3 2
1 1 1 1 1 1 1 1 1 0 1 2 2 3 3 4 4 4 4 4 4 4 4 4 4 2 2 2 2 3 3 4 3 2 2 3 4 4 3 2 2 2 2
1 0 0 1 1 1 1 1 1 0 1 2 3 3 3 3 3 3 3 4 3 4 4 3 2 2 2 2 3 2 2 2 2 2 3 3 2 2 2 2 2 2 2
1 1 1 1 1 1 1 1 0 0 1 2 3 3 3 2 3 3 2 1 3 4 4 4 3 2 3 4 4 4 3 4 3 2 3 3 2 2 2 2 2 2 1
Wind_Direction
151 149 152 146 141 138 140 142 145 138 141 147 166 163 162 164 140 121 115 116 123 136 137 115 157 144 129 146 302 308 293 270 259 293 312 268 219 174 155 184 175 169 179
151 151 155 149 148 149 149 150 150 145 146 153 166 167 153 158 123 107 118 127 154 176 170 158 200 162 147 169 227 321 301 303 310 319 326 320 331 336 187 184 193 180 173
156 155 156 151 150 151 154 150 143 145 152 169 164 148 133 130 126 145 134 145 161 155 109 133 271 277 180 168 212 213 247 298 313 353 180 269 267 301 284 208 182 161 156
162 156 155 155 154 152 147 135 137 141 149 164 160 166 154 153 156 133 122 147 156 152 152 144 103 348 13 31 298 81 306 295 299 296 249 245 236 233 298 293 237 185 182
159 155 156 156 158 154 147 141 135 140 147 154 157 162 146 140 118 108 118 147 147 158 173 125 125 105 38 355 4 11 337 331 310 310 303 300 276 226 224 266 294 327 264
154 151 150 151 154 152 149 147 144 149 152 154 149 142 137 129 122 129 155 196 165 163 142 123 104 89 48 2 351 318 307 307 318 312 306 304 291 290 259 251 260 245 255
152 150 149 151 155 158 155 148 148 153 157 160 157 155 162 166 181 190 176 227 151 118 88 99 101 85 83 278 296 354 321 305 300 297 297 299 293 283 269 266 271 262 254
156 155 153 152 155 157 155 152 152 156 162 162 155 153 172 192 159 125 129 343 63 102 104 100 110 185 263 290 23 343 281 298 301 300 306 300 297 296 287 270 285 298 296
154 151 151 153 156 159 158 156 152 157 163 164 161 160 167 158 132 143 182 113 80 123 109 128 147 187 330 341 9 303 303 317 322 315 314 307 303 299 288 288 270 268 292
151 147 147 148 149 155 154 155 153 157 159 163 173 164 163 165 164 140 99 66 56 48 64 143 136 120 284 297 308 278 292 310 297 288 318 318 318 317 307 293 287 271 257
150 150 149 148 148 147 147 148 148 154 159 159 157 149 156 163 160 144 139 125 102 112 93 42 39 264 267 273 335 295 307 310 314 313 324 320 317 315 314 317 308 293 289
144 144 146 146 150 153 153 148 148 153 152 150 149 153 152 157 170 159 145 138 144 153 131 152 285 272 360 358 320 314 340 341 329 325 326 318 319 325 319 319 311 305 300
127 124 132 141 145 147 147 147 154 156 151 147 150 154 165 174 180 168 161 156 150 164 117 104 312 323 14 8 328 334 330 319 314 321 317 317 328 317 317 305 303 299 299
121 124 123 127 135 134 132 137 149 149 150 152 154 156 175 184 186 171 166 172 173 190 191 220 243 257 286 302 295 314 313 311 330 335 328 322 316 317 314 309 314 312 309
131 127 121 108 113 122 130 134 139 140 141 141 148 154 163 164 176 183 191 193 199 210 201 220 234 242 250 284 8 294 289 315 316 317 319 317 331 339 325 328 325 320 317
131 125 119 117 113 108 119 126 129 131 133 144 154 155 160 175 188 205 214 212 216 223 213 221 239 250 277 36 37 7 341 336 316 309 305 283 291 320 334 330 321 311 297
127 123 121 118 115 112 111 109 124 134 141 149 157 167 181 189 196 215 209 223 231 227 220 228 227 189 303 38 61 3 314 309 305 301 305 305 312 354 346 316 298 306 301
119 122 127 125 130 127 115 107 118 133 147 156 168 174 187 197 203 209 211 216 219 224 226 229 229 199 233 224 186 280 261 272 282 294 298 302 338 342 341 317 317 307 307
105 103 113 118 119 118 113 123 131 137 149 172 193 189 188 204 212 216 216 209 213 226 229 225 227 210 224 219 213 231 258 261 264 264 280 298 2 356 1 336 317 309 304
102 102 110 104 100 103 123 141 144 152 176 193 203 199 201 221 224 222 220 221 221 230 234 231 229 220 215 206 209 223 250 262 263 258 262 321 28 23 1 321 305 305 312
92 90 100 112 117 131 143 148 138 161 203 212 214 206 203 225 222 218 216 217 225 234 231 225 228 220 205 191 195 204 247 270 281 272 263 194 89 292 288 278 272 283 292
95 92 92 109 124 136 144 142 149 177 226 240 230 222 212 228 227 199 225 227 225 227 225 224 230 222 206 194 197 201 229 272 291 295 305 194 200 236 256 256 271 288 299
88 78 100 112 123 139 146 160 153 277 272 273 253 240 231 215 211 214 228 232 227 226 226 224 231 224 211 194 193 202 224 250 268 300 314 280 236 245 239 239 258 276 282
97 61 66 66 85 119 140 153 145 161 277 273 270 250 234 215 201 206 212 222 234 233 230 230 234 222 197 180 183 207 223 236 246 271 286 257 237 251 260 236 234 231 249
70 33 14 348 337 53 28 355 25 222 271 269 273 267 248 227 205 212 225 226 231 232 234 238 235 234 229 202 199 216 229 242 252 269 254 241 222 226 230 225 223 228 226
28 324 312 317 311 319 303 347 18 251 273 273 275 274 271 244 212 209 226 242 234 224 213 215 216 217 200 199 207 218 233 236 217 226 247 241 234 241 244 239 227 219 216